カタログに戻る

AETHER-3

運用中通信SSO
NORAD 67374·PAYLOAD·🇨🇦 Canada

打ち上げ Jan 11, 2026 から Vandenberg Space Force Base

Loading…

次のパス (今後24時間)

TLE

最新Source: Space-Track

元期: Sep 14, 2026, 09:46 UTC

1 67374U 26004M   26257.40736589  .00000424  00000-0  53294-4 0  9990
2 67374  97.8068 254.5792 0004387 153.7236 206.4203 14.87024447 36568

AllMySatでAETHER-3をリアルタイム追跡

Download on the App Store